#timestamp,LO_Frequency,Hit,StdDev 
1631930415.9,286047000.4,N
1631930435.7,286046999.9,N
1631930455.6,286047002.7,N
1631930475.4,286047001.5,N
1631930495.2,286047004.0,N
1631930515.1,286047001.5,N
1631930516.0,286047001.5,N
1631930535.8,286047000.2,N
1631930555.6,286047002.1,N
1631930575.5,286047002.8,N
1631930595.3,286047002.5,N
1631930615.2,286047000.2,N
1631930635.0,286047002.8,N
1631930635.9,286047002.8,N
1631930655.7,286047001.8,N
1631930675.6,286047004.3,N
1631930695.4,286047001.4,N
1631930715.3,286047003.7,N
1631930735.1,286047003.9,N
1631930755.8,286047004.3,N
1631930775.7,286047001.5,N
1631930795.5,286047002.1,N
1631930815.4,286047001.7,N
1631930835.2,286047001.6,N
1631930855.0,286047001.3,N
1631930855.9,286047001.3,N
1631930875.8,286047001.9,N
1631930895.6,286047001.3,N
1631930915.4,286047003.8,Y
1631930935.3,286047002.1,P
1631930955.1,286046999.9,N
1631930975.9,286047000.1,N
1631930995.7,286046998.9,N
1631931015.5,286046998.8,N
1631931035.4,286046998.8,N
1631931055.2,286046998.7,N
1631931075.1,286046998.2,N
1631931076.0,286046998.2,N
1631931095.8,286047000.7,N
1631931115.6,286047000.3,N
1631931135.5,286047000.3,N
1631931155.3,286047000.6,N
1631931175.1,286046999.9,N
1631931195.9,286046999.8,N
1631931215.7,286047000.9,N
1631931235.6,286047000.7,N
1631931255.4,286046998.8,N
1631931275.2,286046999.3,N
1631931295.1,286046996.5,Y
1631931296.0,286046996.5,P
1631931315.8,286046996.5,N
1631931335.7,286046999.2,N
1631931355.5,286046996.6,N
1631931375.3,286046996.9,N
1631931395.2,286046997.4,N
1631931415.0,286046998.9,N
1631931415.9,286046998.9,N
1631931435.7,286046998.3,N
1631931455.6,286046999.1,N
1631931475.4,286046998.2,N
1631931495.3,286046999.9,N
1631931515.1,286047002.3,N
1631931516.0,286047002.3,N
1631931535.8,286047001.5,N
1631931555.7,286047003.9,N
1631931575.5,286047002.9,N
1631931595.4,286047003.3,N
1631931615.2,286047005.8,N
1631931635.0,286047005.0,N
1631931635.9,286047005.0,N
1631931655.8,286047007.6,N
1631931675.6,286047007.0,N
1631931695.4,286047006.8,N
1631931715.3,286047006.3,N
1631931735.1,286047006.1,N
1631931755.9,286047006.4,N
1631931775.7,286047006.6,N
1631931795.5,286047006.1,N
1631931815.4,286047009.2,N
1631931835.2,286047009.2,N
1631931855.0,286047006.5,N
1631931855.9,286047006.5,N
1631931875.8,286047006.7,N
1631931895.6,286047006.6,N
1631931915.5,286047006.1,N
1631931935.3,286047006.2,N
1631931955.1,286047007.4,N
1631931975.9,286047006.6,N
1631931995.7,286047004.5,N
1631932015.6,286047005.7,N
1631932035.4,286047006.0,N
1631932055.3,286047004.8,N
1631932075.1,286047004.8,N
1631932076.0,286047004.8,N
1631932095.8,286047007.5,Y
1631932115.7,286047001.1,P
1631932135.5,286046998.1,N
1631932155.4,286046998.7,N
1631932175.2,286046998.5,N
1631932195.0,286046999.4,N
1631932195.9,286046999.4,N
1631932215.8,286046997.4,N
1631932235.6,286046996.8,N
1631932255.4,286046999.1,N
1631932275.3,286046999.1,N
1631932295.1,286046997.0,N
1631932315.9,286046996.8,N
1631932335.9,286046997.8,N
1631932355.7,286046999.0,N
1631932375.6,286046999.2,N
1631932395.4,286046998.9,N
1631932415.2,286046998.8,N
1631932435.1,286046996.6,N
1631932436.0,286046996.6,N
1631932455.8,286046997.0,N
1631932475.6,286046996.7,N
1631932495.5,286046997.8,N
1631932515.3,286046997.8,N
1631932535.2,286046997.9,N
1631932555.9,286046997.7,N
1631932575.7,286046997.5,N
1631932595.6,286046997.8,N
1631932615.4,286046998.9,N
1631932635.2,286046999.5,N
1631932655.1,286046997.8,N
1631932656.0,286046997.8,N
1631932675.8,286046997.4,N
1631932695.7,286046996.9,Y
1631932715.5,286046998.3,P
1631932735.3,286047000.8,P
1631932755.2,286046998.4,N
1631932775.0,286047000.7,N
1631932775.9,286047000.7,N
1631932795.8,286046999.2,N
1631932815.6,286046996.5,Y
1631932835.4,286046997.1,P
1631932855.3,286046997.4,N
1631932875.1,286046999.2,N
1631932895.9,286046996.7,Y
1631932915.7,286046997.0,P
1631932935.5,286046997.1,P
1631932955.4,286047011.9,P
1631932975.2,286046996.8,N
1631932995.0,286046997.4,N
1631932995.9,286046997.4,N
1631933015.8,286046995.3,N
1631933035.6,286046997.5,N
1631933055.5,286046997.5,N
1631933075.3,286046997.8,N
1631933095.1,286046997.5,N
1631933115.9,286046997.1,N
1631933135.7,286046999.4,N
1631933155.6,286046999.2,N
1631933175.4,286046997.0,N
1631933195.2,286046997.0,N
1631933215.1,286046999.5,N
1631933216.0,286046999.5,N
1631933235.8,286046997.0,N
1631933255.7,286046999.2,N
1631933275.5,286046997.3,N
1631933295.3,286046997.9,N
1631933315.2,286046997.8,N
1631933335.0,286046997.3,N
1631933335.9,286046997.3,N
1631933355.8,286046997.3,N
1631933375.6,286046997.5,N
1631933395.5,286046997.2,N
1631933415.3,286046996.7,N
1631933435.2,286046997.3,N
1631933455.9,286046997.3,N
1631933475.7,286046995.3,N
1631933495.6,286046997.5,N
1631933515.4,286046997.3,N
1631933535.2,286046997.0,Y
1631933555.1,286047001.0,P
1631933556.0,286047001.0,N
1631933575.8,286046998.3,N
1631933595.7,286046998.3,N
1631933615.5,286047000.8,N
1631933635.3,286046998.3,N
1631933655.2,286047001.1,N
1631933675.0,286047001.0,N
1631933675.9,286047001.0,N
1631933695.8,286047000.8,N
1631933715.6,286047000.8,N
1631933735.4,286046999.0,N
1631933755.3,286046996.8,N
1631933775.1,286046999.4,N
1631933795.9,286046999.2,N
1631933815.7,286046998.8,N
1631933835.5,286046998.7,N
1631933855.4,286046998.1,N
1631933875.2,286046999.0,N
1631933895.0,286046999.2,N
1631933895.9,286046999.2,N
1631933915.8,286046999.6,N
1631933935.6,286046999.2,N
1631933955.5,286046996.6,N
1631933975.3,286046999.2,N
1631933995.1,286046998.3,N
